| time (UTC) | temp F | wind direction | speed knots | gust knots | rain 1hr in | rain 24hr in | rain mn in | humidity % | barometer mb |
| 20260510203023 | 53 | 0.0 | 0.0 | 0.00 | 0.00 | 0.00 | 77 | 1009.1 | |
| 20260510202023 | 54 | 0.0 | 0.9 | 0.00 | 0.00 | 0.00 | 77 | 1009.2 | |
| 20260510201027 | 54 | 0.0 | 2.6 | 0.00 | 0.00 | 0.00 | 77 | 1009.3 | |
| 20260510200027 | 54 | 0.0 | 0.9 | 0.00 | 0.00 | 0.00 | 76 | 1009.3 | |
| 20260510195027 | 54 | 45 | 1.7 | 4.3 | 0.00 | 0.00 | 0.00 | 77 | 1009.2 |
| 20260510194027 | 54 | 45 | 0.9 | 3.5 | 0.00 | 0.00 | 0.00 | 77 | 1009.3 |
| 20260510193026 | 54 | 45 | 0.9 | 2.6 | 0.00 | 0.00 | 0.00 | 77 | 1009.4 |
| 20260510192026 | 54 | 0.0 | 1.7 | 0.00 | 0.00 | 0.00 | 76 | 1009.5 | |
| 20260510191024 | 55 | 45 | 0.9 | 2.6 | 0.00 | 0.00 | 0.00 | 75 | 1009.6 |
| 20260510190027 | 55 | 45 | 0.9 | 1.7 | 0.00 | 0.00 | 0.00 | 73 | 1009.6 |
| 20260510185027 | 56 | 45 | 0.9 | 3.5 | 0.00 | 0.00 | 0.00 | 73 | 1009.7 |
| 20260510184047 | 57 | 45 | 0.9 | 3.5 | 0.00 | 0.00 | 0.00 | 72 | 1009.7 |
| 20260510183047 | 57 | 0.0 | 2.6 | 0.00 | 0.00 | 0.00 | 71 | 1009.7 | |
| 20260510182027 | 58 | 23 | 0.9 | 3.5 | 0.00 | 0.00 | 0.00 | 69 | 1009.7 |
| 20260510181026 | 58 | 45 | 0.9 | 3.5 | 0.00 | 0.00 | 0.00 | 69 | 1009.7 |
| 20260510180027 | 58 | 23 | 0.9 | 4.3 | 0.00 | 0.00 | 0.00 | 69 | 1009.7 |
| 20260510175027 | 59 | 45 | 0.9 | 5.2 | 0.00 | 0.00 | 0.00 | 68 | 1009.6 |
| 20260510174026 | 59 | 23 | 1.7 | 4.3 | 0.00 | 0.00 | 0.00 | 68 | 1009.7 |
| 20260510173027 | 59 | 0 | 0.9 | 2.6 | 0.00 | 0.00 | 0.00 | 68 | 1009.9 |
| 20260510172028 | 59 | 45 | 0.9 | 4.3 | 0.00 | 0.00 | 0.00 | 66 | 1009.9 |
| 20260510171027 | 60 | 45 | 1.7 | 5.2 | 0.00 | 0.00 | 0.00 | 66 | 1010.0 |
| 20260510170027 | 61 | 45 | 2.6 | 7.8 | 0.00 | 0.00 | 0.00 | 65 | 1010.2 |
| 20260510165027 | 61 | 45 | 1.7 | 5.2 | 0.00 | 0.00 | 0.00 | 64 | 1010.3 |
| 20260510164026 | 62 | 45 | 1.7 | 5.2 | 0.00 | 0.00 | 0.00 | 63 | 1010.3 |
| 20260510163026 | 62 | 45 | 1.7 | 7.0 | 0.00 | 0.00 | 0.00 | 63 | 1010.4 |
| 20260510162026 | 63 | 338 | 1.7 | 3.5 | 0.00 | 0.00 | 0.00 | 63 | 1010.5 |
| 20260510161027 | 63 | 68 | 0.9 | 3.5 | 0.00 | 0.00 | 0.00 | 59 | 1010.7 |
| 20260510160047 | 63 | 45 | 0.9 | 3.5 | 0.00 | 0.00 | 0.00 | 61 | 1010.8 |
| 20260510155026 | 63 | 23 | 0.9 | 3.5 | 0.00 | 0.00 | 0.00 | 61 | 1010.9 |
| 20260510154027 | 63 | 23 | 1.7 | 3.5 | 0.00 | 0.00 | 0.00 | 62 | 1011.0 |
| 20260510153027 | 63 | 0 | 0.9 | 4.3 | 0.00 | 0.00 | 0.00 | 60 | 1011.1 |
| 20260510152026 | 64 | 90 | 0.9 | 3.5 | 0.00 | 0.00 | 0.00 | 55 | 1011.2 |
| 20260510151026 | 66 | 0.0 | 3.5 | 0.00 | 0.00 | 0.00 | 53 | 1011.4 | |
| 20260510150026 | 64 | 68 | 0.9 | 2.6 | 0.00 | 0.00 | 0.00 | 57 | 1011.5 |
| 20260510145026 | 65 | 0.0 | 0.0 | 0.00 | 0.00 | 0.00 | 56 | 1011.6 | |
| 20260510144026 | 65 | 23 | 0.9 | 3.5 | 0.00 | 0.00 | 0.00 | 56 | 1011.8 |
| 20260510143026 | 64 | 0.0 | 2.6 | 0.00 | 0.00 | 0.00 | 56 | 1011.9 | |
| 20260510142046 | 64 | 0.0 | 0.0 | 0.00 | 0.00 | 0.00 | 55 | 1012.1 | |
| 20260510141027 | 64 | 0.0 | 1.7 | 0.00 | 0.00 | 0.00 | 61 | 1012.2 | |
| 20260510140027 | 64 | 270 | 0.9 | 5.2 | 0.00 | 0.00 | 0.00 | 60 | 1012.3 |
| 20260510135026 | 64 | 315 | 2.6 | 4.3 | 0.00 | 0.00 | 0.00 | 58 | 1012.3 |
| 20260510134026 | 65 | 23 | 0.9 | 3.5 | 0.00 | 0.00 | 0.00 | 52 | 1012.3 |
| 20260510133026 | 66 | 0.0 | 1.7 | 0.00 | 0.00 | 0.00 | 56 | 1012.6 | |
| 20260510132026 | 66 | 90 | 0.9 | 3.5 | 0.00 | 0.00 | 0.00 | 54 | 1012.7 |
| 20260510131026 | 68 | 338 | 3.5 | 7.8 | 0.00 | 0.00 | 0.00 | 56 | 1012.8 |
| 20260510130046 | 68 | 315 | 2.6 | 6.1 | 0.00 | 0.00 | 0.00 | 57 | 1012.9 |
| 20260510125026 | 68 | 338 | 1.7 | 4.3 | 0.00 | 0.00 | 0.00 | 58 | 1013.0 |
| 20260510124026 | 65 | 90 | 0.9 | 6.1 | 0.00 | 0.00 | 0.00 | 56 | 1013.0 |
| 20260510123026 | 67 | 0 | 3.5 | 7.8 | 0.00 | 0.00 | 0.00 | 60 | 1013.1 |
| 20260510122046 | 68 | 0 | 0.9 | 4.3 | 0.00 | 0.00 | 0.00 | 58 | 1013.3 |
| 20260510121026 | 68 | 0 | 4.3 | 9.6 | 0.00 | 0.00 | 0.00 | 54 | 1013.4 |
| 20260510120026 | 68 | 0 | 3.5 | 7.8 | 0.00 | 0.00 | 0.00 | 59 | 1013.5 |
| 20260510115027 | 66 | 0 | 1.7 | 7.0 | 0.00 | 0.00 | 0.00 | 61 | 1013.5 |
| 20260510114026 | 66 | 0 | 2.6 | 7.0 | 0.00 | 0.00 | 0.00 | 54 | 1013.6 |
| 20260510113026 | 67 | 0 | 4.3 | 7.8 | 0.00 | 0.00 | 0.00 | 61 | 1013.7 |
| 20260510112026 | 65 | 0 | 5.2 | 15.6 | 0.00 | 0.00 | 0.00 | 61 | 1013.8 |
| 20260510111026 | 66 | 338 | 1.7 | 7.0 | 0.00 | 0.00 | 0.00 | 57 | 1013.9 |
| 20260510110026 | 64 | 338 | 1.7 | 4.3 | 0.00 | 0.00 | 0.00 | 61 | 1014.0 |
| 20260510105026 | 67 | 0 | 6.1 | 9.6 | 0.00 | 0.00 | 0.00 | 65 | 1014.1 |
| 20260510104025 | 66 | 0 | 3.5 | 9.6 | 0.00 | 0.00 | 0.00 | 59 | 1014.2 |
| 20260510103026 | 63 | 0 | 5.2 | 12.2 | 0.00 | 0.00 | 0.00 | 67 | 1014.2 |
| 20260510102026 | 65 | 0 | 3.5 | 7.0 | 0.00 | 0.00 | 0.00 | 65 | 1014.3 |
| 20260510101026 | 63 | 0 | 7.0 | 11.3 | 0.00 | 0.00 | 0.00 | 67 | 1014.4 |
| 20260510100026 | 63 | 315 | 3.5 | 9.6 | 0.00 | 0.00 | 0.00 | 65 | 1014.3 |
| 20260510095026 | 65 | 0 | 5.2 | 9.6 | 0.00 | 0.00 | 0.00 | 65 | 1014.4 |
| 20260510094026 | 65 | 0 | 3.5 | 7.8 | 0.00 | 0.00 | 0.00 | 64 | 1014.4 |
| 20260510093025 | 64 | 0 | 4.3 | 7.8 | 0.00 | 0.00 | 0.00 | 67 | 1014.6 |
| 20260510092025 | 63 | 0 | 3.5 | 7.8 | 0.00 | 0.00 | 0.00 | 67 | 1014.6 |
| 20260510091025 | 63 | 0 | 2.6 | 6.1 | 0.00 | 0.00 | 0.00 | 67 | 1014.6 |
| 20260510090025 | 63 | 315 | 0.9 | 2.6 | 0.00 | 0.00 | 0.00 | 66 | 1014.7 |
| 20260510085026 | 63 | 315 | 3.5 | 7.8 | 0.00 | 0.00 | 0.00 | 65 | 1014.9 |
| 20260510084026 | 62 | 0 | 5.2 | 9.6 | 0.00 | 0.00 | 0.00 | 66 | 1014.8 |
| 20260510083025 | 63 | 315 | 2.6 | 9.6 | 0.00 | 0.00 | 0.00 | 67 | 1015.0 |
| 20260510082046 | 61 | 0 | 3.5 | 5.2 | 0.00 | 0.00 | 0.00 | 70 | 1015.1 |
| 20260510081046 | 60 | 0.0 | 0.9 | 0.00 | 0.00 | 0.00 | 72 | 1015.1 | |
| 20260510080025 | 61 | 270 | 0.9 | 2.6 | 0.00 | 0.00 | 0.00 | 76 | 1015.2 |
| 20260510075025 | 60 | 248 | 0.9 | 1.7 | 0.00 | 0.00 | 0.00 | 75 | 1015.1 |
| 20260510074025 | 57 | 0.0 | 1.7 | 0.00 | 0.00 | 0.00 | 81 | 1015.2 | |
| 20260510073026 | 55 | 0.0 | 0.0 | 0.00 | 0.00 | 0.00 | 79 | 1015.2 | |
| 20260510072025 | 55 | 0.0 | 0.9 | 0.00 | 0.00 | 0.00 | 80 | 1015.3 | |
| 20260510071106 | 54 | 0.0 | 1.7 | 0.00 | 0.00 | 0.00 | 80 | 1015.4 | |
| 20260510070025 | 54 | 0.0 | 0.9 | 0.00 | 0.00 | 0.00 | 82 | 1015.4 | |
| 20260510065025 | 53 | 0.0 | 0.0 | 0.00 | 0.00 | 0.00 | 83 | 1015.5 | |
| 20260510064025 | 53 | 0.0 | 0.9 | 0.00 | 0.00 | 0.00 | 83 | 1015.5 | |
| 20260510063025 | 52 | 0.0 | 0.9 | 0.00 | 0.00 | 0.00 | 84 | 1015.5 | |
| 20260510062025 | 52 | 0.0 | 1.7 | 0.00 | 0.00 | 0.00 | 84 | 1015.7 | |
| 20260510061025 | 52 | 225 | 0.9 | 2.6 | 0.00 | 0.00 | 0.00 | 84 | 1015.8 |
| 20260510060025 | 53 | 203 | 0.9 | 1.7 | 0.00 | 0.00 | 0.00 | 82 | 1015.8 |
| 20260510055025 | 54 | 0.0 | 1.7 | 0.00 | 0.00 | 0.00 | 81 | 1015.7 | |
| 20260510054025 | 53 | 0.0 | 0.9 | 0.00 | 0.00 | 0.00 | 81 | 1015.7 | |
| 20260510053025 | 52 | 0.0 | 0.0 | 0.00 | 0.00 | 0.00 | 86 | 1015.7 | |
| 20260510052025 | 50 | 0.0 | 0.0 | 0.00 | 0.00 | 0.00 | 90 | 1015.8 | |
| 20260510051024 | 49 | 0.0 | 0.0 | 0.00 | 0.00 | 0.00 | 89 | 1015.8 | |
| 20260510050023 | 49 | 0.0 | 0.0 | 0.00 | 0.00 | 0.00 | 89 | 1016.0 | |
| 20260510045024 | 50 | 0.0 | 0.0 | 0.00 | 0.00 | 0.00 | 89 | 1016.0 | |
| 20260510044023 | 50 | 0.0 | 0.0 | 0.00 | 0.00 | 0.00 | 88 | 1016.1 | |
| 20260510043044 | 50 | 0.0 | 0.0 | 0.00 | 0.00 | 0.00 | 87 | 1016.1 | |
| 20260510042023 | 50 | 0.0 | 0.0 | 0.00 | 0.00 | 0.00 | 86 | 1016.2 | |
| 20260510041024 | 50 | 0.0 | 0.0 | 0.00 | 0.00 | 0.00 | 85 | 1016.3 | |
| 20260510040023 | 50 | 0.0 | 0.0 | 0.00 | 0.00 | 0.00 | 85 | 1016.4 | |
| 20260510035023 | 50 | 0.0 | 0.9 | 0.00 | 0.00 | 0.00 | 85 | 1016.3 | |
| 20260510034023 | 50 | 0.0 | 0.9 | 0.00 | 0.00 | 0.00 | 85 | 1016.4 | |
| 20260510033024 | 50 | 0.0 | 0.9 | 0.00 | 0.00 | 0.00 | 85 | 1016.4 | |
| 20260510032024 | 50 | 0.0 | 0.9 | 0.00 | 0.00 | 0.00 | 85 | 1016.5 | |
| 20260510031023 | 50 | 0.0 | 0.0 | 0.00 | 0.00 | 0.00 | 84 | 1016.5 | |
| 20260510030026 | 50 | 0.0 | 0.0 | 0.00 | 0.00 | 0.00 | 84 | 1016.7 | |
| 20260510025026 | 50 | 0.0 | 0.9 | 0.00 | 0.00 | 0.00 | 84 | 1016.8 | |
| 20260510024026 | 50 | 0.0 | 0.9 | 0.00 | 0.00 | 0.00 | 84 | 1016.8 | |
| 20260510023045 | 50 | 0.0 | 0.0 | 0.00 | 0.00 | 0.00 | 84 | 1016.9 | |
| 20260510022025 | 50 | 0.0 | 0.0 | 0.00 | 0.00 | 0.00 | 84 | 1016.9 | |
| 20260510021025 | 50 | 0.0 | 0.0 | 0.00 | 0.00 | 0.00 | 84 | 1017.0 | |
| 20260510020026 | 50 | 0.0 | 0.0 | 0.00 | 0.00 | 0.00 | 83 | 1017.0 | |
| 20260510015025 | 51 | 0.0 | 0.0 | 0.00 | 0.00 | 0.00 | 83 | 1017.1 | |
| 20260510014026 | 51 | 0.0 | 0.9 | 0.00 | 0.00 | 0.00 | 84 | 1017.1 | |
| 20260510013025 | 51 | 0.0 | 0.9 | 0.00 | 0.00 | 0.00 | 85 | 1017.3 | |
| 20260510012025 | 50 | 0.0 | 0.9 | 0.00 | 0.00 | 0.00 | 87 | 1017.3 | |
| 20260510011025 | 50 | 0.0 | 0.0 | 0.00 | 0.00 | 0.00 | 88 | 1017.4 | |
| 20260510010025 | 50 | 0.0 | 0.0 | 0.00 | 0.00 | 0.00 | 87 | 1017.5 | |
| 20260510005025 | 51 | 0.0 | 0.0 | 0.00 | 0.00 | 0.00 | 86 | 1017.5 | |
| 20260510004046 | 52 | 0.0 | 0.9 | 0.00 | 0.00 | 0.00 | 85 | 1017.5 | |
| 20260510003025 | 52 | 0.0 | 0.0 | 0.00 | 0.00 | 0.00 | 84 | 1017.7 | |
| 20260510001025 | 53 | 0.0 | 0.9 | 0.00 | 0.00 | 0.00 | 82 | 1017.9 | |
| 20260510000045 | 52 | 68 | 0.9 | 2.6 | 0.00 | 0.00 | 0.00 | 82 | 1018.2 |
| 20260509235025 | 53 | 90 | 0.9 | 1.7 | 0.00 | 0.00 | 0.00 | 81 | 1018.3 |
| 20260509234025 | 52 | 68 | 0.9 | 2.6 | 0.00 | 0.00 | 0.00 | 80 | 1018.5 |
| 20260509233025 | 52 | 0.0 | 0.9 | 0.00 | 0.00 | 0.00 | 81 | 1018.6 | |
| 20260509232045 | 52 | 0.0 | 0.0 | 0.00 | 0.00 | 0.00 | 83 | 1018.8 | |
| 20260509231025 | 52 | 0.0 | 0.0 | 0.00 | 0.00 | 0.00 | 81 | 1018.9 | |
| 20260509230045 | 52 | 0.0 | 0.9 | 0.00 | 0.00 | 0.00 | 80 | 1019.0 | |
| 20260509225025 | 52 | 0.0 | 0.9 | 0.00 | 0.00 | 0.00 | 81 | 1019.1 | |
| 20260509224045 | 52 | 0.0 | 0.0 | 0.00 | 0.00 | 0.00 | 80 | 1019.3 | |
| 20260509223025 | 52 | 0.0 | 0.9 | 0.00 | 0.00 | 0.00 | 79 | 1019.3 | |
| 20260509222025 | 52 | 0.0 | 0.9 | 0.00 | 0.00 | 0.00 | 79 | 1019.4 | |
| 20260509221025 | 52 | 0.0 | 0.9 | 0.00 | 0.00 | 0.00 | 78 | 1019.3 | |
| 20260509220025 | 53 | 0.0 | 0.0 | 0.00 | 0.00 | 0.00 | 76 | 1019.4 | |
| 20260509215025 | 53 | 0.0 | 0.0 | 0.00 | 0.00 | 0.00 | 75 | 1019.4 | |
| 20260509214025 | 53 | 0.0 | 0.0 | 0.00 | 0.00 | 0.00 | 76 | 1019.5 | |
| 20260509213025 | 53 | 0.0 | 0.0 | 0.00 | 0.00 | 0.00 | 76 | 1019.6 | |
| 20260509212025 | 53 | 0.0 | 0.0 | 0.00 | 0.00 | 0.00 | 78 | 1019.6 | |
| 20260509211025 | 53 | 0.0 | 0.0 | 0.00 | 0.00 | 0.00 | 78 | 1019.6 | |
| 20260509210025 | 53 | 0.0 | 0.0 | 0.00 | 0.00 | 0.00 | 73 | 1019.5 | |
| 20260509205025 | 53 | 0.0 | 0.0 | 0.00 | 0.00 | 0.00 | 76 | 1019.7 | |
| 20260509204045 | 53 | 0.0 | 0.0 | 0.00 | 0.00 | 0.00 | 75 | 1019.7 |